Temperature
12 12 12 12 12 12 12 12 13 14 14 14 13 13 12 12 12 13 13 13 14 14 14 14 15 15 15 15 15 15 15 15 15 15 15 15 15 16
11 11 11 12 12 12 12 12 12 12 13 13 13 13 12 12 12 12 12 13 13 13 13 14 14 14 14 14 15 15 15 15 15 15 15 15 15 15
11 11 11 11 11 11 11 11 11 12 12 12 12 12 11 11 11 12 12 12 12 13 13 13 13 14 14 14 14 14 14 15 15 15 15 15 15 15
11 11 11 11 11 11 11 11 11 11 11 11 12 12 11 11 11 11 11 12 12 12 12 13 13 13 13 14 14 14 14 14 14 14 14 14 15 15
11 11 11 11 11 11 11 11 11 11 11 11 11 11 11 11 11 11 11 11 12 12 12 12 13 13 13 13 13 14 14 14 14 14 14 14 14 14
11 11 11 11 11 11 11 11 11 11 11 11 11 11 11 11 11 11 11 11 11 12 12 12 12 12 12 13 13 13 13 13 13 14 14 14 14 14
11 11 11 11 11 11 11 11 11 10 11 11 11 11 11 11 11 11 11 11 11 11 11 12 12 12 12 12 12 13 13 13 13 13 14 14 14 14
12 12 11 11 11 11 11 11 11 10 10 10 11 11 10 11 10 10 10 11 11 11 11 11 11 11 12 12 12 12 12 13 13 13 13 13 14 14
12 12 12 12 11 11 11 11 11 11 10 10 10 10 10 10 10 10 10 10 10 10 10 11 11 11 11 12 12 12 12 12 12 13 13 13 13 14
12 12 12 12 11 11 11 10 10 10 10 10 10 10 10 9 9 9 9 9 9 10 10 10 11 11 11 11 11 11 11 12 12 12 13 13 13 13
12 12 12 12 11 11 11 11 10 10 10 10 10 10 10 10 9 9 9 9 10 10 10 10 10 11 11 11 11 11 11 11 12 12 12 13 13 13
12 12 12 12 12 12 11 11 10 10 10 10 10 10 10 10 10 9 9 9 9 10 10 10 10 10 11 11 11 11 11 11 11 12 12 12 12 12
12 13 12 12 12 12 11 11 11 10 10 10 10 10 10 10 9 9 9 9 9 9 10 10 10 10 10 11 11 11 11 11 11 11 11 12 12 12
12 12 12 12 12 11 11 11 11 11 10 10 10 10 10 10 10 10 9 9 9 9 9 9 9 9 9 10 10 11 11 11 11 11 11 11 11 12
12 12 12 12 11 11 11 11 11 10 10 10 10 10 10 10 10 9 9 9 9 9 9 9 8 8 9 9 9 10 10 10 11 11 11 11 11 11
11 11 11 11 11 11 11 11 10 10 10 10 10 10 10 10 10 9 9 9 9 9 9 9 9 8 8 8 9 9 10 10 10 10 10 11 11 11
11 11 11 11 11 11 11 11 10 10 10 10 10 10 10 10 10 9 9 9 9 9 9 9 9 8 8 8 8 9 9 10 10 10 10 10 10 11
11 10 11 11 11 11 11 11 11 10 10 10 10 10 10 9 9 9 9 9 8 8 9 9 9 8 8 8 8 8 9 9 10 10 10 10 10 11
10 10 10 11 11 11 11 11 11 11 10 10 10 9 9 9 9 9 9 8 8 8 8 8 8 8 8 8 9 9 9 9 9 10 10 10 10 10
10 10 10 11 10 10 10 10 10 10 10 9 9 9 9 9 9 9 8 8 8 8 8 8 8 8 8 9 9 9 9 9 9 10 10 10 10 10
10 10 10 10 10 10 9 9 9 9 9 9 9 9 8 8 8 8 8 8 8 8 8 8 8 8 8 8 8 9 9 9 9 9 9 9 10 10
10 9 9 9 9 9 9 9 8 8 9 9 9 8 8 8 8 8 8 8 8 8 8 8 8 8 8 8 8 9 9 9 9 9 9 9 9 10
9 9 9 9 9 8 8 8 8 8 8 8 8 8 8 8 8 8 8 8 8 8 8 8 8 8 8 8 8 8 9 9 9 9 9 9 9 9
Wind_Speed
3 3 5 4 4 5 5 6 7 9 8 5 5 3 5 6 5 8 9 5 6 8 9 9 10 11 13 14 17 20 23 25 26 27 28 28 29 29
3 4 5 5 4 5 6 6 7 8 9 7 6 7 7 10 8 10 11 9 12 11 10 10 11 12 13 14 16 18 20 23 24 26 27 28 29 28
5 5 6 6 6 6 6 6 7 8 10 10 9 8 8 10 10 11 12 12 12 13 12 12 12 13 14 15 16 17 18 20 22 24 26 27 28 29
6 6 7 6 7 8 7 8 8 8 10 12 11 10 10 10 10 11 12 13 13 11 12 14 15 15 16 16 16 18 18 19 20 22 24 25 27 28
7 7 8 7 8 7 8 8 8 8 9 11 12 9 10 9 10 11 12 10 13 13 13 17 18 18 17 17 18 18 19 19 20 21 22 23 25 27
8 8 9 9 9 9 8 9 9 10 10 11 11 10 10 9 9 10 10 9 10 11 11 12 14 17 18 19 19 20 20 20 21 21 22 22 24 25
9 9 10 9 8 9 9 9 9 10 10 10 11 11 10 9 9 9 10 10 11 10 11 11 11 12 14 19 22 21 21 21 21 22 22 23 24 25
10 10 10 10 12 14 14 14 13 12 12 12 12 12 12 11 10 10 11 12 12 9 9 11 10 11 11 14 14 17 19 20 21 22 22 23 24 24
10 10 10 9 9 11 13 16 17 18 17 15 15 15 14 12 12 13 12 13 13 11 11 13 12 12 12 14 12 13 16 18 20 21 22 22 23 24
12 12 12 12 11 11 12 13 13 14 14 15 15 16 15 13 12 13 14 15 15 13 13 14 14 13 13 13 13 16 18 19 21 21 21 22 23 24
13 13 13 14 11 10 13 14 15 14 14 18 18 17 16 15 13 12 14 14 15 13 12 13 13 13 13 13 13 17 19 20 21 21 22 22 22 21
12 13 14 16 13 11 13 14 16 15 14 13 13 16 18 18 18 16 15 14 15 14 12 11 13 13 13 12 12 11 13 18 22 22 22 21 20 16
12 12 11 12 15 15 15 15 16 14 14 15 15 14 14 13 14 14 14 14 15 15 12 11 12 13 13 13 12 11 11 11 12 15 20 22 21 18
13 13 11 6 12 14 14 15 15 13 14 15 15 14 13 13 12 12 13 15 15 17 16 15 14 14 14 15 13 12 11 11 11 12 12 14 20 23
13 14 14 11 10 13 17 18 14 13 14 15 15 15 13 12 12 11 13 14 16 18 19 19 17 15 15 16 16 14 13 12 12 12 12 11 11 11
13 13 15 17 16 16 14 13 13 14 14 15 15 14 13 12 12 12 12 12 13 14 16 19 18 18 17 17 16 16 15 14 12 12 11 11 11 12
9 11 13 13 13 13 13 13 13 13 13 14 14 14 13 13 12 12 11 12 13 14 14 12 14 16 18 17 16 16 15 15 14 13 12 13 12 12
9 13 14 14 14 13 13 13 12 12 13 13 13 13 13 13 12 11 11 12 13 14 14 13 11 11 12 14 17 18 16 15 15 13 13 13 14 12
10 13 14 14 14 13 13 13 13 12 11 12 13 13 13 13 13 12 12 12 13 14 14 13 12 12 14 15 15 17 17 15 14 14 13 13 14 13
12 13 14 13 13 13 13 13 13 12 11 11 12 12 12 12 13 13 13 14 13 13 13 13 13 13 15 15 14 12 16 16 14 14 13 12 12 11
12 12 12 12 12 12 12 12 13 12 12 11 11 12 12 12 12 13 13 13 13 13 14 14 13 13 12 12 13 14 13 15 15 13 13 12 12 11
12 12 12 12 12 12 12 11 12 12 12 12 12 12 12 12 13 14 13 12 12 13 15 13 12 10 12 14 15 15 14 12 13 16 15 13 11 11
12 12 12 12 12 11 10 11 12 12 11 11 11 11 11 11 11 11 12 12 12 13 13 13 11 11 12 13 14 14 16 14 11 10 12 13 16 14
Wind_Direction
261 248 269 282 276 283 286 289 294 298 297 288 282 297 296 299 311 298 293 292 293 284 278 271 265 255 250 246 242 237 233 233 233 234 233 231 231 231
269 284 280 278 281 275 276 278 279 286 291 297 296 294 308 302 290 290 285 279 264 257 261 264 265 263 256 250 244 239 236 233 232 233 233 232 231 232
253 253 258 277 278 279 272 273 274 277 282 289 291 291 288 286 293 291 283 276 268 234 239 253 261 260 258 255 248 242 239 236 233 233 233 232 232 232
254 258 261 258 258 268 274 273 274 277 278 286 291 290 285 283 281 282 281 275 276 252 235 247 254 257 257 254 251 245 241 239 237 235 235 234 234 233
254 257 260 263 263 267 269 273 275 273 273 280 284 288 285 282 283 279 278 274 274 265 241 239 244 249 251 252 250 247 243 241 240 240 239 239 238 236
254 256 260 260 261 266 266 265 270 276 274 274 279 282 280 279 276 279 281 273 271 275 271 263 250 242 245 247 246 244 244 243 242 241 242 243 242 240
256 255 256 256 269 268 273 277 276 274 277 277 280 283 284 288 285 288 287 287 278 273 273 267 258 252 244 237 236 238 239 241 242 242 243 243 244 243
261 262 260 243 238 233 244 256 265 269 274 280 281 282 284 285 286 286 288 286 284 280 276 273 269 265 260 256 240 225 228 235 239 241 243 243 243 244
264 265 268 266 245 254 238 229 241 242 247 261 274 278 282 284 286 283 281 282 283 286 287 279 274 268 265 261 237 229 233 238 241 243 244 243 242 242
260 260 262 268 263 259 265 264 263 256 244 243 255 264 271 277 277 275 279 277 273 267 263 268 271 270 270 267 241 227 234 240 243 244 244 245 244 242
259 259 259 262 253 235 255 264 268 269 256 239 244 255 265 270 269 272 272 271 272 271 259 259 267 271 270 266 255 225 227 234 238 241 242 243 242 241
260 258 247 244 252 226 248 259 265 269 273 269 246 245 251 251 240 245 258 266 271 273 269 261 265 269 272 267 260 247 235 231 230 233 235 237 235 236
271 270 268 217 224 229 238 254 262 270 273 272 269 263 256 252 249 242 243 252 263 267 270 267 268 268 267 273 274 266 262 259 243 236 230 228 225 223
272 275 277 224 221 230 237 248 253 259 264 266 266 265 264 262 257 254 251 251 255 262 270 272 271 270 271 272 271 268 260 257 258 257 251 221 217 221
267 276 284 277 253 249 242 240 242 249 255 259 262 264 264 264 263 261 258 255 255 257 258 255 255 259 260 263 268 269 269 265 259 254 251 248 238 227
261 266 251 250 248 258 263 245 242 248 253 259 263 266 267 263 256 256 260 260 259 260 251 246 246 251 254 256 260 263 264 263 262 257 252 252 247 241
302 283 278 273 265 257 256 255 253 250 248 253 259 263 263 261 259 257 256 260 261 265 266 258 244 239 245 253 257 259 260 260 258 256 253 254 251 243
279 273 273 273 273 272 270 266 259 256 256 256 257 259 261 260 260 259 256 256 258 262 264 264 258 250 247 247 239 252 256 257 257 253 249 251 253 247
255 268 271 273 273 274 273 272 271 268 265 263 263 261 258 258 258 258 258 257 257 260 262 262 259 253 252 256 247 224 242 252 254 253 249 247 251 252
260 269 274 275 276 276 276 276 276 273 269 264 262 262 260 260 259 258 257 258 259 261 263 261 255 250 251 260 267 256 224 240 251 252 252 251 252 253
278 280 281 281 279 278 278 277 276 274 271 270 267 264 262 260 259 259 260 258 258 262 263 262 258 250 254 260 261 260 251 227 237 250 255 253 252 248
286 286 285 284 283 282 280 277 275 273 271 268 269 267 264 262 260 260 260 260 258 259 263 265 262 251 247 249 254 259 261 253 234 233 244 251 251 249
288 287 285 283 282 279 277 275 275 276 276 275 274 272 269 265 264 263 262 263 265 264 264 266 264 255 250 250 254 258 260 258 253 241 240 231 232 244
Height
1556 1555 1555 1555 1555 1555 1554 1554 1554 1551 1549 1549 1548 1547 1546 1545 1543 1542 1542 1541 1541 1541 1541 1542 1542 1543 1544 1545 1547 1548 1550 1553 1555 1557 1560 1563 1566 1568
1553 1552 1552 1553 1553 1552 1552 1551 1550 1550 1548 1546 1545 1545 1542 1541 1540 1538 1538 1537 1536 1537 1537 1537 1537 1538 1538 1539 1540 1542 1543 1545 1547 1550 1552 1555 1558 1561
1551 1551 1550 1550 1550 1550 1549 1548 1548 1547 1545 1543 1542 1541 1538 1536 1535 1534 1533 1532 1533 1532 1531 1532 1532 1532 1533 1533 1534 1535 1536 1538 1540 1542 1544 1547 1549 1552
1549 1549 1548 1548 1547 1546 1546 1545 1544 1543 1542 1539 1538 1537 1535 1533 1531 1529 1529 1529 1528 1527 1525 1525 1526 1526 1527 1527 1528 1528 1529 1531 1532 1534 1536 1539 1541 1543
1547 1546 1545 1545 1544 1543 1542 1542 1541 1540 1538 1536 1534 1532 1530 1529 1527 1525 1524 1522 1522 1522 1520 1519 1519 1519 1520 1520 1521 1521 1522 1524 1525 1527 1529 1530 1532 1535
1543 1542 1542 1541 1540 1539 1538 1537 1536 1535 1534 1532 1530 1528 1527 1525 1523 1521 1520 1519 1517 1517 1515 1514 1513 1512 1512 1513 1514 1514 1515 1516 1518 1520 1521 1523 1524 1526
1540 1538 1538 1537 1535 1535 1534 1534 1533 1531 1530 1528 1526 1524 1523 1521 1520 1518 1516 1514 1512 1511 1510 1509 1508 1507 1507 1506 1506 1507 1508 1509 1510 1512 1513 1515 1516 1517
1535 1534 1533 1532 1530 1529 1528 1528 1527 1526 1525 1524 1522 1520 1518 1517 1515 1513 1512 1510 1507 1507 1505 1504 1503 1501 1501 1501 1500 1500 1500 1501 1502 1503 1505 1506 1508 1509
1531 1530 1529 1529 1526 1525 1524 1522 1521 1519 1519 1517 1516 1514 1513 1512 1510 1508 1506 1504 1502 1501 1500 1497 1497 1495 1495 1494 1493 1493 1493 1493 1494 1495 1496 1497 1499 1500
1526 1525 1524 1523 1522 1520 1519 1518 1516 1514 1513 1511 1509 1507 1507 1505 1504 1502 1500 1497 1495 1494 1493 1491 1490 1489 1488 1488 1486 1485 1485 1485 1486 1487 1488 1489 1490 1492
1521 1519 1518 1517 1516 1514 1513 1511 1510 1508 1507 1504 1502 1501 1499 1498 1497 1495 1494 1492 1489 1488 1488 1486 1484 1483 1481 1480 1479 1478 1477 1477 1477 1478 1479 1480 1482 1483
1515 1513 1512 1510 1510 1508 1506 1505 1503 1502 1501 1499 1496 1493 1491 1490 1489 1487 1486 1485 1483 1481 1481 1480 1478 1477 1475 1474 1473 1472 1470 1469 1469 1469 1470 1472 1473 1474
1509 1508 1507 1504 1503 1501 1500 1498 1496 1495 1493 1492 1489 1487 1485 1483 1482 1480 1478 1477 1476 1474 1475 1474 1472 1471 1469 1467 1467 1466 1465 1464 1463 1462 1462 1463 1464 1466
1502 1501 1500 1498 1495 1494 1492 1490 1488 1487 1485 1484 1482 1480 1478 1477 1475 1473 1472 1469 1467 1466 1465 1466 1465 1464 1463 1461 1459 1459 1458 1458 1457 1457 1457 1456 1456 1457
1494 1493 1491 1489 1487 1485 1483 1481 1480 1478 1476 1475 1473 1472 1470 1469 1467 1465 1463 1461 1459 1457 1456 1456 1455 1455 1455 1453 1452 1452 1451 1451 1450 1450 1449 1449 1450 1450
1487 1485 1483 1480 1478 1476 1474 1472 1470 1469 1468 1466 1464 1463 1462 1460 1458 1457 1456 1454 1452 1450 1448 1447 1446 1446 1445 1445 1445 1444 1444 1443 1443 1443 1442 1442 1442 1442
1480 1477 1475 1474 1471 1468 1466 1464 1463 1461 1459 1457 1456 1454 1453 1452 1450 1449 1448 1446 1444 1442 1441 1440 1438 1437 1436 1436 1436 1435 1435 1435 1435 1435 1435 1434 1434 1435
1472 1469 1467 1465 1463 1461 1458 1456 1454 1452 1451 1449 1447 1446 1444 1443 1442 1441 1439 1438 1436 1434 1433 1432 1432 1430 1429 1427 1427 1426 1427 1427 1427 1428 1427 1427 1427 1428
1463 1461 1459 1457 1455 1452 1450 1448 1446 1444 1443 1441 1439 1438 1436 1435 1433 1432 1431 1430 1428 1426 1425 1425 1424 1423 1421 1419 1418 1419 1418 1419 1419 1420 1420 1420 1419 1420
1456 1454 1452 1449 1447 1444 1442 1440 1438 1436 1435 1432 1431 1429 1428 1427 1425 1424 1423 1422 1420 1418 1417 1416 1416 1414 1414 1413 1412 1411 1411 1411 1412 1412 1412 1412 1412 1413
1449 1447 1444 1442 1439 1437 1434 1432 1430 1428 1426 1425 1423 1421 1420 1419 1417 1416 1415 1413 1412 1411 1409 1408 1407 1407 1406 1406 1404 1403 1403 1403 1403 1404 1405 1406 1405 1405
1442 1440 1437 1434 1432 1429 1426 1424 1422 1420 1419 1417 1415 1413 1412 1410 1409 1408 1407 1406 1404 1403 1401 1400 1400 1399 1398 1397 1396 1395 1395 1396 1396 1396 1397 1398 1398 1398
1436 1433 1430 1427 1425 1422 1419 1417 1415 1413 1411 1409 1408 1406 1404 1403 1401 1400 1399 1398 1397 1395 1394 1393 1392 1391 1390 1390 1389 1388 1388 1388 1388 1388 1388 1389 1390 1391